TimeAKST,TemperatureF,Dew PointF,Humidity,Sea Level PressureIn,VisibilityMPH,Wind Direction,Wind SpeedMPH,Gust SpeedMPH,PrecipitationIn,Events,Conditions,WindDirDegrees,DateUTC
4:36 AM,39.2,33.8,81,29.78,10.0,ESE,10.4,16.1,N/A,,Unknown,110,2013-02-28 13:36:00
4:56 AM,39.2,33.8,81,29.76,10.0,ESE,12.7,18.4,N/A,,Overcast,110,2013-02-28 13:56:00
5:16 AM,39.2,32.0,75,29.73,10.0,ESE,12.7,17.3,N/A,,Overcast,110,2013-02-28 14:16:00
5:36 AM,41.0,30.2,65,29.72,10.0,SE,6.9,17.3,N/A,,Overcast,130,2013-02-28 14:36:00
5:56 AM,41.0,30.2,65,29.70,10.0,SE,8.1,-,N/A,,Mostly Cloudy,130,2013-02-28 14:56:00
6:16 AM,41.0,30.2,65,29.69,10.0,SE,9.2,-,N/A,,Mostly Cloudy,130,2013-02-28 15:16:00
6:36 AM,42.8,30.2,61,29.67,10.0,SE,8.1,17.3,N/A,,Mostly Cloudy,130,2013-02-28 15:36:00
6:56 AM,42.8,30.2,61,29.65,10.0,ESE,11.5,21.9,N/A,,Overcast,110,2013-02-28 15:56:00
7:16 AM,42.8,30.2,61,29.63,10.0,ESE,9.2,16.1,N/A,,Overcast,110,2013-02-28 16:16:00
7:36 AM,42.8,30.2,61,29.62,10.0,ESE,3.5,-,N/A,,Overcast,110,2013-02-28 16:36:00
7:56 AM,42.8,30.2,61,29.60,10.0,ESE,6.9,-,N/A,,Overcast,120,2013-02-28 16:56:00
8:16 AM,42.8,30.2,61,29.58,10.0,ESE,8.1,18.4,N/A,,Overcast,120,2013-02-28 17:16:00
8:36 AM,42.8,30.2,61,29.56,10.0,ESE,12.7,20.7,N/A,,Overcast,110,2013-02-28 17:36:00
8:56 AM,42.8,32.0,66,29.54,10.0,SE,6.9,-,N/A,,Overcast,130,2013-02-28 17:56:00
9:16 AM,42.8,32.0,66,29.52,10.0,ESE,12.7,19.6,N/A,,Overcast,120,2013-02-28 18:16:00
9:36 AM,42.8,32.0,66,29.53,10.0,SE,9.2,20.7,0.01,,Overcast,140,2013-02-28 18:36:00
9:56 AM,41.0,33.8,76,29.52,10.0,SE,12.7,16.1,0.03,,Overcast,130,2013-02-28 18:56:00
10:16 AM,41.0,33.8,76,29.52,10.0,ESE,5.8,19.6,0.04,,Overcast,120,2013-02-28 19:16:00
10:56 AM,39.2,33.8,81,29.51,5.0,ESE,9.2,16.1,0.09,,Overcast,110,2013-02-28 19:56:00
11:16 AM,39.2,33.8,81,29.51,5.0,East,9.2,-,0.03,,Overcast,100,2013-02-28 20:16:00
11:36 AM,39.2,33.8,81,29.51,5.0,ESE,10.4,18.4,0.05,,Overcast,110,2013-02-28 20:36:00
11:56 AM,39.2,33.8,81,29.50,5.0,ESE,13.8,19.6,0.09,,Overcast,110,2013-02-28 20:56:00
12:16 PM,39.2,33.8,81,29.51,5.0,ESE,9.2,24.2,0.03,,Overcast,110,2013-02-28 21:16:00
12:36 PM,39.2,33.8,81,29.51,5.0,East,9.2,19.6,0.06,,Overcast,100,2013-02-28 21:36:00
12:56 PM,39.2,33.8,81,29.51,5.0,East,5.8,17.3,0.10,,Overcast,100,2013-02-28 21:56:00
1:16 PM,39.2,33.8,81,29.52,5.0,East,3.5,-,0.02,,Overcast,100,2013-02-28 22:16:00
1:36 PM,39.2,33.8,81,29.53,5.0,Calm,Calm,-,0.04,,Overcast,0,2013-02-28 22:36:00
1:56 PM,39.2,35.6,87,29.55,5.0,NNW,3.5,-,0.06,,Overcast,330,2013-02-28 22:56:00
2:16 PM,39.2,35.6,87,29.57,5.0,North,3.5,-,N/A,,Overcast,360,2013-02-28 23:16:00
2:36 PM,39.2,35.6,87,29.59,5.0,NE,3.5,-,N/A,,Overcast,40,2013-02-28 23:36:00
2:56 PM,39.2,35.6,87,29.61,5.0,Calm,Calm,-,0.01,,Mostly Cloudy,0,2013-02-28 23:56:00
3:16 PM,39.2,33.8,81,29.63,5.0,ENE,3.5,-,0.02,,Mostly Cloudy,60,2013-03-01 00:16:00
3:36 PM,39.2,35.6,87,29.65,5.0,Calm,Calm,-,0.03,,Mostly Cloudy,0,2013-03-01 00:36:00
3:56 PM,39.2,33.8,81,29.66,7.0,SSE,8.1,-,0.05,,Mostly Cloudy,160,2013-03-01 00:56:00
4:48 PM,41.0,35.6,81,29.70,10.0,South,9.2,-,N/A,Rain,Light Rain Showers,170,2013-03-01 01:48:00
5:50 PM,39.2,35.6,87,29.74,10.0,South,9.2,-,N/A,Rain,Light Rain Showers,180,2013-03-01 02:50:00
6:48 PM,39.2,33.8,81,29.80,10.0,South,3.5,-,N/A,Rain,Light Rain Showers,180,2013-03-01 03:48:00
7:47 PM,39.2,33.8,81,29.83,10.0,South,9.2,-,N/A,,Mostly Cloudy,170,2013-03-01 04:47:00
8:49 PM,37.4,33.8,87,29.86,10.0,South,6.9,-,N/A,,Scattered Clouds,190,2013-03-01 05:49:00
9:47 PM,37.4,32.0,81,29.88,10.0,Calm,Calm,-,N/A,,Partly Cloudy,0,2013-03-01 06:47:00